Voltar ao catálogo

DMSP 5D-2 F13 DEB

AtivoSSO
NORAD 40448·DEBRIS·🇺🇸 United States

Lançado Mar 24, 1995 de Vandenberg Space Force Base

Loading…

Próximas Passagens (próximas 24 horas)

TLE

AtualizadoSource: Space-Track

Época: Sep 13, 2026, 06:10 UTC

1 40448U 95015BA  26256.25757692  .00002225  00000-0  92993-3 0  9990
2 40448  98.9754 265.2568 0037671 149.4467 210.8918 14.26815919594088

Acompanhe DMSP 5D-2 F13 DEB em tempo real com AllMySat

Download on the App Store